Location: East Guldeford
(50.9500°N, 0.7500°E)
Time: 09:50:14
(UTC+00:00)

DNEPR-1 R/B - Pass Details

Date: 12 May 2021
Orbit: 587 x 1334 km, 64.6° (Epoch: 16 June)

Event Time Altitude Azimuth Distance (km) Brightness Sun altitude
Exits shadow 22:54:00 22° 213° (SSW) 1,764 5.5 -19.5°
Maximum altitude 22:57:43 79° 129° (SE) 797 3.9 -19.6°
Drops below altitude 10° 23:02:34 10° 44° (NE) 2,147 6.7 -19.8°
Sets 23:04:43 0° 43° (NE) 2,993 7.6 -19.8°
